Location: Ku?niki
(51.4449°N, 17.8974°E)
Time: 07:39:38
(UTC+00:00)

Cosmos 1867 - Pass Details

Date: 18 September 2020
Orbit: 777 x 799 km, 65.0° (Epoch: 21 October)

Event Time Altitude Azimuth Distance (km) Brightness Sun altitude
Rises 18:25:55 0° 316° (NW) 3,314 8.1 -14.6°
Reaches altitude 10° 18:28:25 10° 312° (NW) 2,381 7.2 -15.0°
Maximum altitude 18:33:41 50° 238° (WSW) 1,008 4.3 -15.7°
Enters shadow 18:38:36 12° 165° (SSE) 2,244 5.5 -16.4°
